Tracking 27112 objects as of 26-Mar-2023
HD Live streaming from Space Station
objects crossing your sky now

NOAA 16 DEB

Track NOAA 16 DEB now!
10-day predictions


NORAD ID: 42346
Int'l Code: 2000-055QN
Perigee: 714.9 km
Apogee: 788.8 km
Inclination: 99.0 °
Period: 99.7 minutes
Semi major axis: 7122 km
RCS: Unknown
Launch date: September 21, 2000
Source: United States (US)
Launch site: AIR FORCE WESTERN TEST RANGE (AFWTR)

Note: This is SATELLITE DEBRIS
Your satellite tracking list
Your tracking list is empty




NASA's NSSDC Master Catalog

Two Line Element Set (TLE):
1 42346U 00055QN  23083.87525616  .00034316  00000-0  98023-2 0  9996
2 42346  99.0394 301.9344 0051867 243.7227 115.8627 14.44193717373030
Source of the keplerian elements: AFSPC